[[{"header":{"parameterUnit":"m.s-1","parameterCategory":1,"la1":30.2991,"la2":30.254,"lo1":-89.0895,"lo2":-89.0444,"dy":0.0017,"dx":0.0017,"nx":28,"ny":28,"refTime":"2023-09-06T09:00:00:Z","depth":0,"parameterNumber":2,"parameterNumberName":"U-component_of_WINDS"},"data":[0,0,0,0,0,0,0,0,0,0,0,0,0,0,0,0,0,0,0,0,0,0,0,0,0,0,0,0,0,0,0,0,0,0,0,0,0,0,0,0,0,0,0,0,0,0,0,0,0,0,0,0,0,0,0,0,0,0,-2.2298,-2.2298,0,-2.2335,-2.2336,-2.2336,-2.23,-2.2299,-2.2297,-2.2296,-2.2333,-2.2335,-2.2337,0,0,0,0,0,0,0,0,0,0,0,0,0,-2.2194,-2.2196,-2.2298,-2.2298,-2.2299,-2.2335,-2.2336,-2.2336,-2.23,-2.2298,-2.2297,-2.2295,-2.2332,-2.2335,-2.2337,0,0,0,0,0,0,0,0,0,0,0,0,0,-2.2236,-2.2197,-2.2298,-2.2285,-2.2285,-2.2335,-2.2336,-2.2336,-2.2301,-2.2298,-2.2296,-2.2294,-2.2331,-2.2334,-2.2338,-2.2402,0,0,-2.2348,-2.235,0,0,0,0,0,0,0,0,-2.2234,-2.224,-2.2287,-2.2286,-2.2286,-2.2311,-2.2313,-2.2358,-2.2301,-2.2294,-2.2296,-2.2293,-2.2327,-2.2331,-2.2342,-2.2404,-2.2405,-2.2349,-2.2351,-2.2352,-2.2353,0,0,0,0,0,0,0,-2.2231,-2.2238,-2.2313,-2.2287,-2.2287,-2.2277,-2.2281,-2.2321,-2.2322,-2.2295,-2.2292,-2.2297,-2.2326,-2.2339,-2.2343,-2.2406,-2.2349,-2.2352,-2.2354,-2.2355,-2.2522,-2.2524,0,0,0,0,0,0,-2.2229,-2.2236,-2.2311,-2.2314,-2.2254,-2.2281,-2.2285,-2.2305,-2.2322,-2.2322,-2.2299,-2.2296,-2.2334,-2.2339,-2.2344,-2.242,-2.2352,-2.2355,-2.2357,-2.2519,-2.2522,-2.2525,0,0,0,0,0,0,-2.2227,-2.2236,-2.231,-2.2274,-2.2283,-2.2285,-2.2308,-2.2307,-2.2319,-2.2325,-2.2325,-2.2312,-2.2333,-2.2339,-2.2388,-2.2421,-2.2357,-2.236,-2.2516,-2.252,-2.2523,-2.2573,0,0,0,0,0,0,-2.2224,-2.2236,-2.2261,-2.2275,-2.2285,-2.2354,-2.231,-2.2309,-2.2326,-2.2321,-2.2337,-2.2338,-2.2331,-2.2383,-2.2391,-2.2424,-2.2363,-2.2513,-2.2518,-2.2522,-2.2568,-2.2578,-2.2586,0,0,0,0,0,-2.2221,-2.2273,-2.2262,-2.2272,-2.2316,-2.2356,-2.2361,-2.2354,-2.2329,-2.2353,-2.2357,-2.2337,-2.2416,-2.2388,-2.2397,-2.2432,-2.2511,-2.2517,-2.2522,-2.2565,-2.2576,-2.2586,0,0,0,0,0,0,-2.2262,-2.2275,-2.2263,-2.2321,-2.2338,-2.235,-2.2381,-2.2366,-2.239,-2.2385,-2.2373,-2.2377,-2.2429,-2.2435,-2.2404,-2.2495,-2.246,-2.2467,-2.2489,-2.25,-2.2508,-2.2505,-2.2366,0,0,0,0,0,-2.2278,-2.231,-2.2319,-2.237,-2.2379,-2.2379,-2.2395,-2.2388,-2.2405,-2.2411,-2.2418,-2.2434,-2.2463,-2.2482,-2.2508,-2.2569,-2.2572,-2.2598,-2.2606,-2.2613,-2.262,-2.2652,-2.2663,-2.2542,-2.2542,-2.2542,0,0,-2.2312,-2.2322,-2.2343,-2.2378,-2.239,-2.2423,-2.2385,-2.2421,-2.2444,-2.2416,-2.2463,-2.2469,-2.2486,-2.2541,-2.2566,-2.2548,-2.2654,-2.262,-2.2626,-2.2628,-2.2659,-2.267,-2.268,-2.2545,-2.2545,-2.2544,0,0,-2.2389,-2.2401,-2.2444,-2.2457,-2.2475,-2.2475,-2.2485,-2.2499,-2.2502,-2.2549,-2.2528,-2.2556,-2.2606,-2.2619,-2.2632,-2.2714,-2.2696,-2.2723,-2.2768,-2.28,-2.2809,-2.2817,-2.2846,-2.2857,-2.2729,-2.2729,-2.2729,0,-2.2428,-2.2476,-2.2468,-2.2506,-2.2521,-2.2498,-2.2541,-2.2554,-2.258,-2.2592,-2.2572,-2.2633,-2.2643,-2.2701,-2.2721,-2.2732,-2.2743,-2.2721,-2.2809,-2.2817,-2.2825,-2.2852,-2.2863,-2.2732,-2.2732,-2.2732,-2.2731,0,-2.2523,-2.2557,-2.259,-2.2616,-2.2636,-2.2676,-2.2673,-2.2694,-2.2685,-2.2686,-2.2734,-2.2745,-2.2773,-2.2786,-2.2778,-2.2843,-2.2831,-2.281,-2.2774,-2.2839,-2.2865,-2.2875,-2.2737,-2.2736,-2.2735,-2.2734,0,0,-2.2627,-2.2648,-2.266,-2.2672,-2.2691,-2.2716,-2.2756,-2.2784,-2.2801,-2.282,-2.2852,-2.2895,-2.2875,-2.289,-2.2883,-2.2911,-2.2974,-2.2886,-2.2886,-2.2901,-2.3046,-2.3061,-2.3073,-2.2963,-2.2965,-2.2967,-2.3044,0,-2.2705,-2.2773,-2.2766,-2.2831,-2.2862,-2.284,-2.2874,-2.2889,-2.2891,-2.2917,-2.292,-2.295,-2.2922,-2.2931,-2.2958,-2.2961,-2.3003,-2.2955,-2.2992,-2.2993,-2.2988,-2.3087,-2.3103,-2.3176,-2.3054,-2.3056,-2.3057,0,-2.2804,-2.2827,-2.2895,-2.2908,-2.2921,-2.2952,-2.2976,-2.3002,-2.3018,-2.3018,-2.3035,-2.3023,-2.3061,-2.3025,-2.3078,-2.3046,-2.306,-2.3064,-2.3067,-2.3069,-2.3029,-2.3091,-2.3199,-2.3209,-2.3073,-2.3071,-2.307,0,-2.2872,-2.292,-2.2967,-2.2977,-2.2994,-2.3016,-2.3025,-2.3039,-2.3056,-2.3078,-2.3088,-2.3114,-2.3128,-2.3148,-2.3143,-2.3117,-2.3197,-2.316,-2.3197,-2.3197,-2.3214,-2.3213,-2.3325,-2.3225,-2.3225,-2.3224,-2.3224,0,-2.2959,-2.3002,-2.2998,-2.3026,-2.3073,-2.3064,-2.311,-2.3116,-2.3128,-2.3157,-2.314,-2.3167,-2.3159,-2.3186,-2.3182,-2.3226,-2.3233,-2.3233,-2.3231,-2.3234,-2.3234,-2.3243,-2.3238,-2.3227,-2.3227,-2.3226,-2.3226,0,-2.3044,-2.3043,-2.3092,-2.3104,-2.3108,-2.3142,-2.3152,-2.3179,-2.318,-2.3217,-2.3225,-2.3226,-2.3257,-2.3254,-2.3288,-2.3285,-2.334,-2.3332,-2.3334,-2.3333,-2.3369,-2.3366,-2.349,-2.3506,-2.3396,-2.3397,-2.3398,0,-2.3099,-2.3131,-2.3147,-2.3165,-2.3175,-2.3204,-2.3222,-2.3215,-2.3233,-2.3254,-2.3278,-2.3307,-2.333,-2.338,-2.3384,-2.341,-2.3402,-2.3444,-2.3406,-2.3408,-2.3402,-2.34,-2.3403,-2.3452,-2.3453,-2.3454,-2.3455,0,-2.3197,-2.3195,-2.3221,-2.3247,-2.3268,-2.3288,-2.3306,-2.3322,-2.3316,-2.3338,-2.3369,-2.3387,-2.3422,-2.3451,-2.3476,-2.3483,-2.3468,-2.3467,-2.3477,-2.348,-2.3479,-2.3479,-2.3354,-2.3464,-2.3463,-2.3462,-2.3462,-2.3461,-2.3268,-2.3295,-2.3311,-2.334,-2.3353,-2.337,-2.3396,-2.34,-2.3426,-2.3454,-2.3448,-2.3483,-2.3498,-2.3529,-2.354,-2.3567,-2.3551,-2.3566,-2.3569,-2.3573,-2.3577,-2.3475,-2.3571,-2.3571,-2.3571,-2.357,-2.357,0,-2.3365,-2.3374,-2.3401,-2.3426,-2.3449,-2.3434,-2.3453,-2.3473,-2.3504,-2.3519,-2.3542,-2.3578,-2.3606,-2.3612,-2.3638,-2.3658,-2.3652,-2.3666,-2.3664,-2.3666,-2.3589,-2.3578,-2.367,-2.367,-2.367,-2.367,-2.367,-2.367,-2.3418,-2.3463,-2.3463,-2.3513,-2.3522,-2.3556,-2.3568,-2.3584,-2.3596,-2.3637,-2.366,-2.3664,-2.3675,-2.3702,-2.3727,-2.3728,-2.3738,-2.3754,-2.3753,-2.3681,-2.3671,-2.3661,-2.3651,-2.3757,-2.3757,-2.3827,-2.3827,-2.3828]},{"header":{"parameterUnit":"m.s-1","parameterCategory":1,"la1":30.2991,"la2":30.254,"lo1":-89.0895,"lo2":-89.0444,"dy":0.0017,"dx":0.0017,"nx":28,"ny":28,"refTime":"2023-09-06T09:00:00:Z","depth":0,"parameterNumber":3,"parameterNumberName":"V-component_of_WINDS"},"data":[0,0,0,0,0,0,0,0,0,0,0,0,0,0,0,0,0,0,0,0,0,0,0,0,0,0,0,0,0,0,0,0,0,0,0,0,0,0,0,0,0,0,0,0,0,0,0,0,0,0,0,0,0,0,0,0,0,0,1.6386,1.6386,0,1.6414,1.6414,1.6415,1.6385,1.6383,1.6382,1.6381,1.6408,1.6409,1.6411,0,0,0,0,0,0,0,0,0,0,0,0,0,1.6304,1.6306,1.6386,1.6387,1.6387,1.6414,1.6414,1.6415,1.6385,1.6383,1.6382,1.6381,1.6407,1.6409,1.6411,0,0,0,0,0,0,0,0,0,0,0,0,0,1.6337,1.6307,1.6386,1.6375,1.6375,1.6414,1.6415,1.6415,1.6385,1.6383,1.6382,1.638,1.6406,1.6409,1.6412,1.6463,0,0,1.642,1.6421,0,0,0,0,0,0,0,0,1.6335,1.634,1.6376,1.6376,1.6375,1.6394,1.6395,1.6431,1.6386,1.6381,1.6381,1.6379,1.6404,1.6407,1.6416,1.6464,1.6465,1.642,1.6422,1.6423,1.6423,0,0,0,0,0,0,0,1.6333,1.6339,1.6397,1.6377,1.6376,1.6368,1.6371,1.6402,1.6402,1.6381,1.6379,1.6383,1.6404,1.6414,1.6416,1.6465,1.642,1.6422,1.6424,1.6425,1.6555,1.6557,0,0,0,0,0,0,1.6332,1.6337,1.6396,1.6398,1.6351,1.6371,1.6374,1.639,1.6402,1.6402,1.6384,1.6382,1.641,1.6413,1.6417,1.6477,1.6423,1.6425,1.6427,1.6553,1.6556,1.6558,0,0,0,0,0,0,1.6331,1.6338,1.6395,1.6367,1.6374,1.6374,1.6392,1.6391,1.6401,1.6404,1.6404,1.6395,1.6409,1.6414,1.6451,1.6477,1.6426,1.6429,1.6551,1.6554,1.6557,1.6597,0,0,0,0,0,0,1.6328,1.6337,1.6357,1.6368,1.6375,1.643,1.6394,1.6393,1.6406,1.6402,1.6413,1.6414,1.6408,1.6448,1.6454,1.648,1.6431,1.6549,1.6553,1.6556,1.6593,1.66,1.6607,0,0,0,0,0,1.6326,1.6367,1.6358,1.6366,1.64,1.6431,1.6435,1.6428,1.6408,1.6428,1.643,1.6413,1.6474,1.6452,1.6459,1.6486,1.6547,1.6552,1.6556,1.659,1.6599,1.6607,0,0,0,0,0,0,1.6359,1.6368,1.6359,1.6405,1.6418,1.6426,1.645,1.6438,1.6456,1.6452,1.6442,1.6445,1.6485,1.6489,1.6465,1.6535,1.6507,1.6513,1.6531,1.6539,1.6546,1.6544,1.6433,0,0,0,0,0,1.6372,1.6397,1.6403,1.6443,1.645,1.6449,1.6463,1.6456,1.6469,1.6474,1.6478,1.649,1.6512,1.6526,1.6546,1.6594,1.6595,1.6616,1.6623,1.6629,1.6633,1.6658,1.6667,1.6572,1.6572,1.6571,0,0,1.6398,1.6406,1.6422,1.645,1.6459,1.6484,1.6454,1.6482,1.65,1.6478,1.6513,1.6518,1.653,1.6573,1.6592,1.6578,1.666,1.6634,1.6639,1.664,1.6663,1.6672,1.668,1.6574,1.6574,1.6573,0,0,1.6458,1.6468,1.6502,1.6512,1.6526,1.6526,1.6534,1.6544,1.6546,1.6583,1.6566,1.6587,1.6625,1.6635,1.6644,1.671,1.6695,1.6717,1.6752,1.6776,1.6784,1.679,1.6812,1.682,1.6721,1.6722,1.6722,0,1.6489,1.6527,1.6521,1.655,1.6562,1.6544,1.6578,1.6588,1.6608,1.6616,1.66,1.6647,1.6655,1.6699,1.6715,1.6724,1.6732,1.6714,1.6783,1.679,1.6796,1.6817,1.6825,1.6724,1.6724,1.6723,1.6723,0,1.6563,1.659,1.6616,1.6636,1.6652,1.6683,1.6681,1.6697,1.669,1.6691,1.6727,1.6736,1.6757,1.6767,1.676,1.6811,1.6801,1.6785,1.6756,1.6807,1.6827,1.6835,1.6727,1.6727,1.6726,1.6725,0,0,1.6644,1.6661,1.6671,1.6679,1.6694,1.6715,1.6745,1.6767,1.678,1.6795,1.682,1.6852,1.6837,1.6848,1.6842,1.6864,1.6914,1.6844,1.6845,1.6856,1.6968,1.6979,1.6989,1.6905,1.6906,1.6907,1.6967,0,1.6704,1.6757,1.6753,1.6803,1.6827,1.681,1.6837,1.6848,1.685,1.687,1.6872,1.6895,1.6874,1.688,1.6901,1.6903,1.6936,1.6899,1.6926,1.6927,1.6922,1.6999,1.7011,1.7066,1.6974,1.6976,1.6977,0,1.678,1.6798,1.6851,1.6862,1.6872,1.6896,1.6915,1.6935,1.6948,1.6948,1.6961,1.6951,1.6981,1.6953,1.6994,1.6969,1.698,1.6983,1.6985,1.6985,1.6954,1.7,1.7084,1.7092,1.6989,1.6988,1.6987,0,1.6832,1.687,1.6906,1.6914,1.6929,1.6946,1.6952,1.6963,1.6977,1.6993,1.7002,1.7022,1.7032,1.7048,1.7044,1.7024,1.7085,1.7057,1.7084,1.7084,1.7096,1.7095,1.7181,1.7106,1.7106,1.7106,1.7106,0,1.6898,1.6931,1.6929,1.6951,1.6987,1.6982,1.7017,1.7021,1.7032,1.7054,1.7041,1.7062,1.7056,1.7077,1.7074,1.7107,1.7112,1.7112,1.7111,1.7112,1.7112,1.7118,1.7113,1.7108,1.7108,1.7107,1.7107,0,1.6961,1.6962,1.7,1.7011,1.7014,1.704,1.7049,1.7069,1.707,1.7099,1.7105,1.7106,1.713,1.7128,1.7154,1.7152,1.7193,1.7188,1.7189,1.7187,1.7214,1.7211,1.7306,1.7317,1.7237,1.7237,1.7238,0,1.7002,1.7027,1.7041,1.7055,1.7063,1.7086,1.71,1.7095,1.711,1.7127,1.7145,1.7168,1.7185,1.7223,1.7226,1.7246,1.7241,1.7272,1.7243,1.7244,1.7239,1.7237,1.7239,1.7277,1.7278,1.7279,1.728,0,1.7075,1.7074,1.7095,1.7115,1.7132,1.7148,1.7163,1.7175,1.7172,1.7189,1.7213,1.7227,1.7254,1.7276,1.7295,1.7301,1.729,1.7289,1.7296,1.7297,1.7296,1.7296,1.7203,1.7286,1.7286,1.7285,1.7285,1.7285,1.7127,1.7148,1.7161,1.7184,1.7195,1.7209,1.7228,1.7233,1.7253,1.7275,1.7271,1.7298,1.731,1.7335,1.7343,1.7364,1.7352,1.7363,1.7365,1.7367,1.737,1.7295,1.7367,1.7367,1.7367,1.7367,1.7367,0,1.7198,1.7206,1.7227,1.7248,1.7266,1.7255,1.7271,1.7286,1.731,1.7323,1.7341,1.7368,1.739,1.7395,1.7416,1.7431,1.7426,1.7437,1.7434,1.7436,1.738,1.7371,1.744,1.744,1.744,1.744,1.744,1.744,1.7237,1.7271,1.7272,1.7312,1.7319,1.7346,1.7355,1.7368,1.7378,1.7409,1.7427,1.7431,1.7441,1.7462,1.7481,1.7482,1.7489,1.7502,1.75,1.7447,1.744,1.7433,1.7424,1.7504,1.7504,1.7554,1.7555,1.7555]}]]